Location: Bettgenhausen
(50.6463°N, 7.5681°E)
Time: 23:16:25
(UTC+00:00)

Okean 3 - Pass Details

Date: 27 February 2020
Orbit: 575 x 602 km, 82.5° (Epoch: 03 April)

Event Time Altitude Azimuth Distance (km) Brightness Sun altitude
Rises 19:25:11 0° 346° (NNW) 2,828 7.3 -22.6°
Reaches altitude 10° 19:27:25 10° 343° (NNW) 1,918 6.5 -22.9°
Maximum altitude 19:31:34 57° 265° (W) 688 4.0 -23.5°
Enters shadow 19:33:29 29° 198° (SSW) 1,072 4.7 -23.8°
